VA7SHG-1 Weather Reports


Display with metric or nautical units.
time (UTC)temp
F
wind
direction
speed
MPH
gust
MPH
rain 1hr
in
rain 24hr
in
rain mn
in
humidity
%
barometer
mb
20260506154523 56 203 1.0 5.0 0.00 0.00 0.00 80 1019.7
20260506153646 55 0.0 0.0 0.00 0.00 0.00 85 1016.7
20260506153551 56 217 2.0 5.0 0.00 0.00 0.00 80 1019.6
20260506152524 55 260 4.0 13.0 0.00 0.00 0.00 82 1019.6
20260506151532 55 210 1.0 5.0 0.00 0.00 0.00 82 1019.3
20260506150523 55 275 5.0 13.0 0.00 0.00 0.00 82 1019.3
20260506145532 54 273 4.0 10.0 0.00 0.00 0.00 83 1019.3
20260506144524 54 264 5.0 10.0 0.00 0.00 0.00 83 1019.2
20260506143645 55 0.0 0.0 0.00 0.00 0.00 85 1016.7
20260506143551 54 258 3.0 8.0 0.00 0.00 0.00 83 1019.2
20260506142544 54 265 6.0 15.0 0.00 0.00 0.00 83 1019.3
20260506141532 54 262 4.0 10.0 0.00 0.00 0.00 84 1019.1
20260506140523 54 265 6.0 15.0 0.00 0.00 0.00 84 1019.3
20260506135551 54 262 5.0 18.0 0.00 0.00 0.00 84 1019.0
20260506134524 54 270 6.0 15.0 0.00 0.00 0.00 84 1018.9
20260506133647 55 0.0 0.0 0.00 0.00 0.00 85 1016.7
20260506133531 54 266 7.0 15.0 0.00 0.00 0.00 85 1018.8
20260506132522 53 267 3.0 8.0 0.00 0.00 0.00 86 1018.7
20260506131532 53 276 3.0 8.0 0.00 0.00 0.00 86 1018.8
20260506130603 53 264 3.0 10.0 0.00 0.00 0.00 87 1018.7
20260506125531 53 263 0.0 3.0 0.00 0.00 0.00 87 1018.7
20260506124524 53 258 1.0 8.0 0.00 0.00 0.00 87 1018.7
20260506123645 55 0.0 0.0 0.00 0.00 0.00 85 1016.7
20260506123531 53 266 2.0 8.0 0.00 0.00 0.00 87 1018.7
20260506122523 53 267 4.0 10.0 0.00 0.00 0.00 87 1018.5
20260506121532 53 269 4.0 10.0 0.00 0.00 0.00 88 1018.4
20260506120524 53 269 1.0 8.0 0.00 0.00 0.00 87 1018.3
20260506115531 53 268 2.0 5.0 0.00 0.00 0.00 87 1018.2
20260506114523 53 274 3.0 8.0 0.00 0.00 0.00 87 1018.3
20260506113647 55 0.0 0.0 0.00 0.00 0.00 85 1016.7
20260506113544 53 267 3.0 8.0 0.00 0.00 0.00 88 1018.2
20260506112524 53 259 1.0 3.0 0.00 0.00 0.00 87 1018.1
20260506111531 53 255 1.0 5.0 0.00 0.00 0.00 87 1018.0
20260506110524 53 260 2.0 5.0 0.00 0.00 0.00 87 1017.9
20260506105532 53 256 1.0 8.0 0.00 0.00 0.00 88 1017.7
20260506104523 53 211 0.0 3.0 0.00 0.00 0.00 88 1017.5
20260506103645 55 0.0 0.0 0.00 0.00 0.00 85 1016.7
20260506103632 54 259 0.0 3.0 0.00 0.00 0.00 87 1017.3
20260506102540 53 270 2.0 3.0 0.00 0.00 0.00 88 1017.2
20260506101531 53 264 0.0 3.0 0.00 0.00 0.00 88 1017.2
20260506100523 54 0.0 0.0 0.00 0.00 0.00 87 1017.1
20260506095532 54 264 0.0 3.0 0.00 0.00 0.00 86 1017.1
20260506094543 54 303 0.0 3.0 0.00 0.00 0.00 86 1017.1
20260506093644 55 0.0 0.0 0.00 0.00 0.00 85 1016.7
20260506093531 53 296 1.0 3.0 0.00 0.00 0.00 88 1017.0
20260506092540 53 0.0 0.0 0.00 0.00 0.00 88 1017.0
20260506091552 54 0.0 0.0 0.00 0.00 0.00 86 1016.9
20260506090524 54 0.0 0.0 0.00 0.00 0.00 86 1016.8
20260506085533 55 0.0 0.0 0.00 0.00 0.00 85 1016.8
20260506084524 55 266 0.0 5.0 0.00 0.00 0.00 84 1016.7
20260506083646 54 239 0.0 3.0 0.00 0.00 0.00 85 1016.6
20260506083532 54 239 0.0 3.0 0.00 0.00 0.00 85 1016.7
20260506082523 54 0.0 0.0 0.00 0.00 0.00 84 1016.6
20260506081533 55 0.0 0.0 0.00 0.00 0.00 82 1016.6
20260506080524 56 165 0.0 3.0 0.00 0.00 0.00 82 1016.6
20260506072524 57 0.0 0.0 0.00 0.00 0.00 78 1016.4
20260506071531 57 260 1.0 5.0 0.00 0.00 0.00 78 1016.3
20260506070605 58 0.0 0.0 0.00 0.00 0.00 78 1016.3
20260506061516 59 206 1.0 8.0 0.00 0.00 0.00 75 1015.8
20260506060524 59 189 2.0 8.0 0.00 0.00 0.00 74 1015.6
20260506050524 61 176 2.0 10.0 0.00 0.00 0.00 70 1015.3
20260506044523 61 223 1.0 5.0 0.00 0.00 0.00 69 1015.2
20260506043646 59 0.0 0.0 0.00 0.00 0.00 74 1011.6
20260506043517 62 253 1.0 8.0 0.00 0.00 0.00 68 1015.1
20260506042524 62 205 2.0 8.0 0.00 0.00 0.00 68 1015.0
20260506041535 62 195 3.0 10.0 0.00 0.00 0.00 67 1014.9
20260506040524 62 196 3.0 10.0 0.00 0.00 0.00 66 1014.8
20260506035516 63 255 4.0 13.0 0.00 0.00 0.00 65 1014.6
20260506034524 63 263 8.0 15.0 0.00 0.00 0.00 66 1014.5
20260506033646 59 0.0 0.0 0.00 0.00 0.00 74 1011.6
20260506033537 63 266 5.0 18.0 0.00 0.00 0.00 67 1014.4
20260506032544 64 254 5.0 13.0 0.00 0.00 0.00 65 1014.2
20260506031515 64 255 4.0 20.0 0.00 0.00 0.00 65 1014.1
20260506030525 65 233 5.0 15.0 0.00 0.00 0.00 65 1014.1
20260506025516 66 249 5.0 20.0 0.00 0.00 0.00 63 1014.0
20260506024524 67 243 5.0 25.0 0.00 0.00 0.00 62 1013.9
20260506023644 59 0.0 0.0 0.00 0.00 0.00 74 1011.6
20260506023515 67 250 7.0 18.0 0.00 0.00 0.00 61 1013.9
20260506022525 68 248 11.0 23.0 0.00 0.00 0.00 60 1013.8
20260506021516 68 231 7.0 15.0 0.00 0.00 0.00 60 1013.7
20260506020524 68 189 5.0 15.0 0.00 0.00 0.00 60 1013.8
20260506015517 69 226 8.0 28.0 0.00 0.00 0.00 58 1013.7
20260506014524 70 246 4.0 15.0 0.00 0.00 0.00 57 1013.6
20260506013647 59 0.0 0.0 0.00 0.00 0.00 74 1011.6
20260506013536 70 229 7.0 15.0 0.00 0.00 0.00 55 1013.6
20260506012541 71 242 6.0 13.0 0.00 0.00 0.00 54 1013.5
20260506011517 71 241 6.0 20.0 0.00 0.00 0.00 53 1013.5
20260506010524 71 245 6.0 18.0 0.00 0.00 0.00 52 1013.5
20260506005535 71 260 7.0 23.0 0.00 0.00 0.00 53 1013.5
20260506004525 71 262 9.0 23.0 0.00 0.00 0.00 51 1013.5
20260506003652 59 0.0 0.0 0.00 0.00 0.00 74 1011.6
20260506003536 72 264 6.0 15.0 0.00 0.00 0.00 50 1013.5
20260506002523 72 236 9.0 20.0 0.00 0.00 0.00 51 1013.6
20260506001537 72 216 10.0 23.0 0.00 0.00 0.00 50 1013.6
20260506000524 73 230 7.0 15.0 0.00 0.00 0.00 49 1013.7
20260505235535 73 249 6.0 13.0 0.00 0.00 0.00 49 1013.8
20260505234525 73 227 8.0 20.0 0.00 0.00 0.00 49 1013.8
20260505233645 59 0.0 0.0 0.00 0.00 0.00 74 1011.6
20260505233516 72 227 8.0 23.0 0.00 0.00 0.00 49 1013.9
20260505232544 73 213 12.0 28.0 0.00 0.00 0.00 50 1013.9
20260505231515 73 227 10.0 33.0 0.00 0.00 0.00 50 1014.0
20260505230545 73 218 7.0 20.0 0.00 0.00 0.00 51 1014.1
20260505225556 73 247 8.0 23.0 0.00 0.00 0.00 51 1014.3
20260505224539 73 229 10.0 25.0 0.00 0.00 0.00 52 1014.3
20260505223647 59 0.0 0.0 0.00 0.00 0.00 74 1011.6
20260505223517 73 222 7.0 18.0 0.00 0.00 0.00 52 1014.3
20260505222524 73 219 9.0 25.0 0.00 0.00 0.00 52 1014.3
20260505221516 73 224 8.0 18.0 0.00 0.00 0.00 52 1014.4
20260505220525 73 238 12.0 35.0 0.00 0.00 0.00 52 1014.4
20260505215533 72 261 11.0 28.0 0.00 0.00 0.00 52 1014.4
20260505214524 73 236 11.0 25.0 0.00 0.00 0.00 52 1014.5
20260505214436 59 0.0 0.0 0.00 0.00 0.00 74 1011.6
20260505213516 72 260 8.0 23.0 0.00 0.00 0.00 54 1014.6
20260505212545 72 259 11.0 30.0 0.00 0.00 0.00 54 1014.6
20260505211536 73 262 8.0 25.0 0.00 0.00 0.00 53 1014.6
20260505210523 72 252 7.0 30.0 0.00 0.00 0.00 54 1014.6
20260505205517 71 278 13.0 25.0 0.00 0.00 0.00 55 1014.7
20260505204525 72 261 11.0 23.0 0.00 0.00 0.00 54 1014.8
20260505204433 59 0.0 0.0 0.00 0.00 0.00 74 1011.6
20260505203516 70 264 13.0 30.0 0.00 0.00 0.00 56 1014.8
20260505202543 70 268 9.0 30.0 0.00 0.00 0.00 57 1014.8
20260505201517 70 264 13.0 23.0 0.00 0.00 0.00 57 1014.8
20260505200544 70 299 15.0 35.0 0.00 0.00 0.00 57 1014.9
20260505195515 70 284 12.0 25.0 0.00 0.00 0.00 56 1014.9
20260505194525 70 272 11.0 25.0 0.00 0.00 0.00 57 1014.9
20260505194434 59 0.0 0.0 0.00 0.00 0.00 74 1011.6
20260505193516 69 274 12.0 23.0 0.00 0.00 0.00 58 1015.0
20260505192524 70 279 10.0 23.0 0.00 0.00 0.00 57 1015.0
20260505191537 69 268 12.0 23.0 0.00 0.00 0.00 58 1015.0
20260505190524 69 273 10.0 20.0 0.00 0.00 0.00 57 1015.1
20260505185536 68 273 7.0 15.0 0.00 0.00 0.00 59 1015.1
20260505184541 69 260 10.0 20.0 0.00 0.00 0.00 57 1015.1
20260505183537 69 282 8.0 20.0 0.00 0.00 0.00 57 1015.2
20260505182525 68 309 7.0 18.0 0.00 0.00 0.00 57 1015.2
20260505181516 67 271 8.0 20.0 0.00 0.00 0.00 59 1015.3
20260505181029 67 246 4.0 8.0 0.00 0.00 0.00 60 1015.3
20260505180021 67 274 6.0 15.0 0.00 0.00 0.00 60 1015.3
20260505175517 66 259 8.0 20.0 0.00 0.00 0.00 61 1015.4
20260505174524 66 301 8.0 15.0 0.00 0.00 0.00 61 1015.4
20260505174432 59 0.0 0.0 0.00 0.00 0.00 74 1011.6
20260505173515 65 298 9.0 20.0 0.00 0.00 0.00 62 1015.5
20260505172525 65 273 7.0 18.0 0.00 0.00 0.00 62 1015.5
20260505171517 65 265 10.0 18.0 0.00 0.00 0.00 61 1015.5
20260505170524 64 276 5.0 13.0 0.00 0.00 0.00 61 1015.6
20260505165517 63 284 9.0 20.0 0.00 0.00 0.00 63 1015.6
20260505164542 62 275 9.0 18.0 0.00 0.00 0.00 65 1015.6
20260505164432 59 0.0 0.0 0.00 0.00 0.00 74 1011.6
20260505163516 62 263 9.0 18.0 0.00 0.00 0.00 65 1015.5
20260505162523 62 272 9.0 18.0 0.00 0.00 0.00 66 1015.5
20260505161517 62 315 8.0 18.0 0.00 0.00 0.00 66 1015.6
20260505160522 61 271 4.0 10.0 0.00 0.00 0.00 68 1015.6